Location: Pulau Tikus
(2.5833°N, 113.6833°E)
Time: 13:51:52
(UTC+00:00)

Daily predictions for brighter satellites

Satellite Brightness Start Highest point End
(mag) Time Altitude Azimuth Time Altitude Azimuth Time Altitude Azimuth
Ariane H10+ 2.8 12:05:10 10° WNW 12:05:47 16° NW 12:05:47 16° NW
Cosmos 1892 2.3 12:07:16 78° SSW 12:07:29 86° W 12:11:00 10° N
OAO 3 Rocket 2.9 12:06:37 10° SW 12:11:13 83° SE 12:12:05 58° ENE
GPS 2-14 Rocket1 4.2 12:09:07 10° WSW 12:10:32 19° SW 12:10:32 19° SW
MOS 1-B Rocket 4.2 12:15:28 41° ENE 12:15:28 41° ENE 12:20:38 10° N
BlueWalker 3 3.9 12:17:11 10° N 12:18:42 20° NNE 12:18:42 20° NNE
H-2A R/B 2.4 12:14:04 10° WSW 12:21:01 66° NW 12:23:15 34° NE
ARIANE 5 DEB (SYLDA) 2.4 12:14:41 10° W 12:21:04 77° NW 12:21:04 77° NW
Cosmos 1825 3.3 12:25:40 36° NW 12:25:40 36° NW 12:28:10 10° NNW
CZ-4B R/B 3.6 12:27:23 46° NE 12:27:23 46° NE 12:31:47 10° N
SJ-6B 3.7 12:27:59 44° W 12:27:59 44° W 12:31:30 10° NNW
Centaur D-1AR AC-38 3.8 12:21:09 10° WNW 12:29:22 54° NNE 12:29:42 52° NE
Nadezhda 1 Rocket 4.1 12:25:10 10° N 12:31:10 69° W 12:34:23 29° SSW
SEDSat Delta rocket 4.0 12:27:56 10° WNW 12:34:32 67° SW 12:35:26 60° S
Cosmos 1538 Rocket 4.1 12:35:24 10° NNW 12:40:14 74° NNW 12:40:14 74° NNW
SPOT 1/Viking Rocket 4.3 12:40:31 40° SW 12:41:43 48° WSW 12:46:39 10° NNW
Delta 198 4.4 12:38:00 10° WNW 12:41:20 51° WNW 12:41:20 51° WNW
Cosmos 1818 4.4 12:42:16 10° NW 12:47:19 42° WSW 12:47:52 40° SW
Cosmos 2074 Rocket 4.3 12:57:52 59° N 12:57:52 59° N 13:02:48 10° N
Resurs 01 Rocket 4.2 13:14:31 17° NW 13:14:31 17° NW 13:15:42 10° NNW
SL-16 R/B 4.2 13:20:04 10° NW 13:24:01 22° W 13:24:01 22° W
Ariane H10+ 4.3 19:20:27 24° E 19:20:27 24° E 19:25:03 10° E
Atlas Centaur 2 4.3 19:49:01 27° NNW 19:49:01 27° NNW 19:54:53 10° NNE
CENTAUR R/B 3.3 19:44:47 10° NNW 19:54:08 86° ENE 20:02:58 10° SSE
Cosmos 2278 4.5 20:02:59 47° E 20:02:59 47° E 20:08:15 10° NNE
Cosmos 2279 Rocket 4.2 20:03:36 67° NE 20:03:36 67° NE 20:09:10 10° N
Ariane V96 H10-3 4.4 20:12:21 73° WSW 20:13:06 84° S 20:44:20 10° E
Cosmos 1092 Rocket 4.3 20:08:25 10° N 20:14:25 60° E 20:17:46 27° SSE
Cosmos 540 Rocket 4.0 20:16:22 56° NNE 20:16:22 56° NNE 20:20:26 10° NNE
NOSS 3-2 (A) 4.3 20:14:45 10° NNW 20:23:43 89° ENE 20:32:55 10° SSE
Cosmos 1666 Rocket 4.4 20:30:25 42° ESE 20:31:07 46° E 20:35:14 10° NNE
Cosmos 371 Rocket 4.3 20:27:47 10° N 20:32:22 45° ENE 20:36:57 10° SSE
Cosmos 2297 Rocket 2.2 20:28:03 10° NNW 20:33:41 79° ENE 20:39:20 10° SSE
ARGOS 4.2 20:29:48 10° NNE 20:34:51 41° ESE 20:39:15 13° SSE
SL-16 R/B 2.2 20:33:36 52° S 20:34:59 77° ESE 20:40:37 10° NNE
Cosmos 468 Rocket 4.0 20:40:57 61° WNW 20:40:57 61° WNW 20:46:02 10° N
Uosat 12 SS-18 rocket 4.4 20:38:25 10° NNW 20:43:17 87° ENE 20:49:12 10° SSE
Palapa 6 Rocket 4.4 20:40:50 25° WNW 20:45:52 79° NNE 20:53:28 10° ESE
SWIFT 3.3 20:51:55 32° NNW 20:52:05 32° NNW 20:55:39 10° NE
Cosmos 2322 Rocket 2.4 20:51:30 21° S 20:55:18 68° ESE 21:00:52 10° NNE
CSL-04 DEB 4.4 20:54:35 10° N 20:58:35 61° WNW 20:59:04 56° WSW
Gbstr 26 Del rocket 4.4 20:55:45 10° NW 21:03:12 62° SW 21:11:06 10° SSE
H-2A R/B 3.0 21:01:09 10° NNW 21:04:49 26° WNW 21:04:49 26° WNW
CZ-4B R/B 4.5 21:04:06 10° S 21:08:29 69° WSW 21:12:45 10° NNW
ARIANE 5 R/B 3.6 21:00:36 20° W 21:08:30 87° S 21:12:38 10° E
HETE-2 4.3 21:10:55 43° WSW 21:12:05 76° S 21:16:01 10° E
Cosmos 1484 Rocket 4.4 21:14:18 10° NNW 21:15:51 17° NW 21:15:51 17° NW
Cosmos 1633 Rocket 3.3 21:15:07 26° SW 21:17:08 45° W 21:21:19 10° NNW
Cosmos 1503 Rocket 4.0 21:12:15 10° N 21:17:25 83° E 21:22:39 10° SSE
ATLAS 2AS CENTAUR R/B 2.9 21:11:53 13° SSW 21:18:45 86° WNW 21:26:12 10° NNE
ARIANE 5 R/B 2.6 21:15:22 10° NNE 21:20:32 81° ESE 21:25:45 10° S
Meteor 1-23 Rocket 4.1 21:15:57 10° N 21:21:35 85° W 21:27:11 10° S
Cosmos 1470 2.9 21:19:50 10° S 21:23:28 66° E 21:27:06 10° N
Cosmos 2360 Rocket 2.1 21:18:42 10° SSW 21:24:19 81° WNW 21:29:58 10° NNE
Cosmos 2219 4.3 21:19:08 10° N 21:24:37 49° ENE 21:30:07 10° SSE
Cosmos 841 Rocket 3.8 21:23:04 17° SW 21:26:44 46° WNW 21:31:43 10° N
deb Ariane 3.5 21:29:15 22° WSW 21:30:55 42° S 21:33:49 10° ESE
SJ-12 4.3 21:27:46 10° NNE 21:31:41 63° ESE 21:35:37 10° S
BREEZE-M TANK 4.3 21:30:29 14° WNW 21:32:14 19° NW 21:35:26 10° N
SL-4 R/B 4.0 21:34:08 11° WNW 21:35:04 12° NW 21:36:28 10° NNW
Cosmos 332 Rocket 3.9 21:32:14 10° N 21:36:58 77° ENE 21:41:44 10° SSE
ERS-1 4.4 21:32:44 10° N 21:37:39 74° WNW 21:42:35 10° SSW
Meteor 1-4 Rocket 2.6 21:37:15 10° NNW 21:39:50 32° W 21:42:26 10° SSW
Cosmos 2333 4.2 21:34:50 10° SSW 21:40:28 86° WNW 21:46:09 10° NNE
Cosmos 1356 Rocket 4.4 21:41:42 10° NW 21:44:51 23° W 21:48:03 10° SSW
SL-08 ROCKET BODY 4.4 21:40:20 10° N 21:46:19 87° W 21:52:26 10° S
Cosmos 2333 Rocket 2.4 21:40:53 10° SSW 21:46:20 51° WNW 21:51:49 10° N
SJ-11-01 4.4 21:45:49 10° N 21:50:22 56° WNW 21:54:58 10° SSW
Lacrosse 5 2.0 21:45:57 10° NNW 21:51:02 81° ENE 21:56:08 10° SSE
USA 267 3.3 21:44:56 10° NNE 21:51:23 67° NW 21:57:51 10° SW
GPS 2-14 Rocket1 4.4 21:56:08 10° SSW 21:57:43 14° SSE 21:59:17 10° SE
ATLAS 5 CENTAUR R/B 4.0 21:52:12 10° N 21:58:23 46° ENE 22:05:21 10° SE
PSLV R/B 4.2 21:54:25 10° NNE 21:58:31 57° ESE 22:02:35 10° S
Cosmos 2263 Rocket 2.4 21:53:13 10° NNW 21:58:50 78° ENE 22:04:30 10° SSE
Okean 3 3.3 21:56:34 10° N 22:00:38 78° W 22:04:42 10° S
USA 238 DEB 4.1 21:52:57 10° NNW 22:00:58 79° WSW 22:09:01 10° SSE
USA 238 4.1 21:53:03 10° NNW 22:01:02 80° WSW 22:09:04 10° SSE
Cosmos 2227 Rocket 3.1 21:56:58 10° NW 22:01:37 27° WSW 22:06:16 10° SSW
Cosmos 1242 Rocket 2.2 21:59:38 10° NNW 22:02:00 36° W 22:04:25 10° SSW
ARIANE 5 DEB (SYLDA) 4.2 22:00:23 10° SW 22:02:34 22° SSE 22:06:18 10° ESE
Cosmos 1814 Rocket 4.0 21:57:52 10° SSW 22:03:01 77° WNW 22:08:13 10° N
Fermi 3.7 21:59:16 10° WSW 22:03:14 82° NNW 22:07:10 10° ENE
ARIANE 5 DEB (SYLDA) 3.3 21:59:12 10° W 22:03:18 88° N 22:08:29 10° E
Cosmos 1908 3.6 22:00:40 10° SSW 22:03:57 35° W 22:07:14 10° NNW
ARIANE 5 R/B 4.1 21:46:48 10° W 23:07:53 67° S 23:13:07 10° ESE
ATLAS 2AS CENTAUR RB 4.1 22:59:49 10° WSW 23:43:04 81° S 23:48:21 10° E
